[[{"header":{"parameterUnit":"m.s-1","parameterCategory":1,"la1":30.2991,"la2":30.254,"lo1":-89.0895,"lo2":-89.0444,"dy":0.0017,"dx":0.0017,"nx":28,"ny":28,"refTime":"2023-11-04T03:00:00:Z","depth":0,"parameterNumber":2,"parameterNumberName":"U-component_of_WINDS"},"data":[0,0,0,0,0,0,0,0,0,0,0,0,0,0,0,0,0,0,0,0,0,0,0,0,0,0,0,0,0,0,0,0,0,0,0,0,0,0,0,0,0,0,0,0,0,0,0,0,0,0,0,0,0,0,0,0,0,0,-0.9795,-0.9795,0,-0.976,-0.976,-0.9759,-0.9744,-0.9744,-0.9744,-0.9744,-0.9706,-0.9705,-0.9704,0,0,0,0,0,0,0,0,0,0,0,0,0,-0.9847,-0.9846,-0.9795,-0.9794,-0.9794,-0.976,-0.976,-0.9759,-0.9744,-0.9744,-0.9744,-0.9744,-0.9706,-0.9705,-0.9704,0,0,0,0,0,0,0,0,0,0,0,0,0,-0.9819,-0.9845,-0.9795,-0.9782,-0.9781,-0.976,-0.976,-0.9759,-0.9743,-0.9744,-0.9744,-0.9744,-0.9706,-0.9705,-0.9703,-0.9692,0,0,-0.9699,-0.9698,0,0,0,0,0,0,0,0,-0.9821,-0.9817,-0.9785,-0.9783,-0.9781,-0.9756,-0.9764,-0.9737,-0.9743,-0.9758,-0.9744,-0.9744,-0.9722,-0.9719,-0.9713,-0.969,-0.9689,-0.9698,-0.9697,-0.9697,-0.9696,0,0,0,0,0,0,0,-0.9823,-0.9819,-0.9781,-0.9784,-0.9782,-0.9778,-0.9774,-0.9759,-0.974,-0.9756,-0.9755,-0.9751,-0.9721,-0.9714,-0.9712,-0.9688,-0.9698,-0.9697,-0.9696,-0.9695,-0.9656,-0.9656,0,0,0,0,0,0,-0.9827,-0.982,-0.9782,-0.978,-0.9802,-0.9777,-0.9773,-0.9764,-0.974,-0.9736,-0.9751,-0.9751,-0.9717,-0.9714,-0.971,-0.9696,-0.9697,-0.9695,-0.9694,-0.9656,-0.9656,-0.9656,0,0,0,0,0,0,-0.9828,-0.9824,-0.9784,-0.98,-0.9794,-0.9776,-0.9767,-0.9763,-0.9756,-0.9736,-0.9733,-0.9748,-0.9717,-0.9712,-0.9697,-0.9695,-0.9695,-0.9693,-0.9657,-0.9656,-0.9656,-0.9668,0,0,0,0,0,0,-0.983,-0.9824,-0.982,-0.98,-0.9794,-0.9771,-0.9766,-0.9763,-0.9754,-0.9753,-0.9732,-0.9728,-0.9717,-0.97,-0.9696,-0.9693,-0.9692,-0.9657,-0.9657,-0.9656,-0.9668,-0.9669,-0.9669,0,0,0,0,0,-0.9832,-0.9824,-0.982,-0.9815,-0.9788,-0.9771,-0.9768,-0.9755,-0.9754,-0.9749,-0.9737,-0.9729,-0.9696,-0.9698,-0.9694,-0.969,-0.9657,-0.9657,-0.9656,-0.9668,-0.9668,-0.9669,0,0,0,0,0,0,-0.9843,-0.9821,-0.9816,-0.9802,-0.9789,-0.9769,-0.9763,-0.9756,-0.9742,-0.9742,-0.9726,-0.9721,-0.9708,-0.9697,-0.97,-0.9679,-0.9676,-0.9675,-0.9686,-0.9686,-0.9687,-0.969,-0.9691,0,0,0,0,0,-0.9844,-0.9833,-0.9814,-0.9803,-0.9797,-0.9781,-0.9773,-0.9765,-0.975,-0.9744,-0.973,-0.9716,-0.9703,-0.9694,-0.968,-0.9667,-0.9662,-0.9662,-0.9662,-0.9663,-0.9662,-0.9655,-0.9655,-0.9656,-0.9656,-0.9656,0,0,-0.9845,-0.9832,-0.9826,-0.9805,-0.9794,-0.9783,-0.9776,-0.9764,-0.9756,-0.9742,-0.9727,-0.9717,-0.97,-0.9686,-0.9679,-0.9677,-0.9661,-0.9663,-0.9663,-0.9662,-0.9655,-0.9655,-0.9655,-0.9655,-0.9656,-0.9656,0,0,-0.9843,-0.9831,-0.9822,-0.9811,-0.9795,-0.9785,-0.9782,-0.9764,-0.9757,-0.9742,-0.9732,-0.9721,-0.9698,-0.9686,-0.9678,-0.9672,-0.9665,-0.9668,-0.9671,-0.9664,-0.9664,-0.9664,-0.9663,-0.9662,-0.9668,-0.9668,-0.9668,0,-0.9846,-0.983,-0.9817,-0.9806,-0.9798,-0.9787,-0.9777,-0.9767,-0.9746,-0.974,-0.9739,-0.971,-0.9698,-0.9682,-0.9681,-0.9674,-0.9671,-0.967,-0.9665,-0.9665,-0.9665,-0.9663,-0.9663,-0.9668,-0.9668,-0.9668,-0.9668,0,-0.9835,-0.9824,-0.9818,-0.98,-0.9791,-0.978,-0.9766,-0.9758,-0.9751,-0.9741,-0.9727,-0.9712,-0.9695,-0.9691,-0.9683,-0.9674,-0.9673,-0.9669,-0.9665,-0.9666,-0.9664,-0.9663,-0.9669,-0.9669,-0.9669,-0.9668,0,0,-0.9838,-0.9815,-0.9813,-0.9805,-0.9787,-0.9777,-0.9767,-0.9752,-0.9745,-0.9732,-0.9723,-0.9704,-0.9701,-0.9691,-0.9682,-0.9676,-0.9674,-0.9672,-0.9671,-0.9673,-0.9663,-0.9667,-0.9666,-0.9669,-0.9669,-0.9669,-0.9665,0,-0.9833,-0.9814,-0.9803,-0.9789,-0.9778,-0.9768,-0.9759,-0.9747,-0.9737,-0.9727,-0.9716,-0.9703,-0.9699,-0.9693,-0.9687,-0.9675,-0.9671,-0.9675,-0.966,-0.966,-0.9665,-0.9665,-0.9669,-0.9666,-0.9664,-0.9664,-0.9664,0,-0.9824,-0.9812,-0.9797,-0.9782,-0.9777,-0.9769,-0.9755,-0.9745,-0.9731,-0.9725,-0.9715,-0.9706,-0.9694,-0.9692,-0.9676,-0.9679,-0.9673,-0.9666,-0.9666,-0.9664,-0.9662,-0.9664,-0.9665,-0.9664,-0.9663,-0.9663,-0.9663,0,-0.9828,-0.9808,-0.9797,-0.9791,-0.9772,-0.9767,-0.9758,-0.9745,-0.9737,-0.9725,-0.972,-0.9706,-0.9698,-0.9688,-0.9676,-0.9676,-0.9661,-0.9658,-0.9656,-0.9656,-0.9653,-0.9653,-0.9653,-0.9649,-0.9649,-0.9649,-0.9649,0,-0.9823,-0.9815,-0.9799,-0.9792,-0.9782,-0.977,-0.976,-0.9751,-0.9739,-0.973,-0.972,-0.9712,-0.9697,-0.9687,-0.9677,-0.9666,-0.9662,-0.9657,-0.9654,-0.9658,-0.9659,-0.9653,-0.9653,-0.9648,-0.9648,-0.9649,-0.9649,0,-0.9826,-0.9815,-0.9802,-0.9786,-0.9782,-0.9775,-0.9761,-0.9754,-0.9745,-0.9734,-0.973,-0.9716,-0.9703,-0.9691,-0.9673,-0.9667,-0.9656,-0.9653,-0.9661,-0.966,-0.9659,-0.9659,-0.9655,-0.9654,-0.965,-0.965,-0.965,0,-0.9824,-0.9817,-0.9801,-0.9795,-0.9787,-0.9777,-0.9769,-0.9758,-0.975,-0.9735,-0.973,-0.9717,-0.9706,-0.9687,-0.9674,-0.9662,-0.9658,-0.9658,-0.9656,-0.966,-0.9659,-0.9659,-0.9659,-0.9658,-0.9658,-0.9658,-0.9658,0,-0.9821,-0.9817,-0.9807,-0.9795,-0.9787,-0.9777,-0.9766,-0.9761,-0.9748,-0.974,-0.9728,-0.9719,-0.9703,-0.9691,-0.9677,-0.9668,-0.9661,-0.9659,-0.9658,-0.9661,-0.9667,-0.9664,-0.9663,-0.9659,-0.9659,-0.9659,-0.9659,-0.9659,-0.9822,-0.9816,-0.9804,-0.9793,-0.9784,-0.9775,-0.9768,-0.9759,-0.9749,-0.9735,-0.9729,-0.9717,-0.9704,-0.9685,-0.9677,-0.9667,-0.9665,-0.9663,-0.9663,-0.9663,-0.9664,-0.9668,-0.9665,-0.9664,-0.9664,-0.9664,-0.9664,0,-0.9819,-0.9812,-0.9802,-0.9789,-0.978,-0.9776,-0.9764,-0.9757,-0.9747,-0.9737,-0.9727,-0.9714,-0.9702,-0.9689,-0.9677,-0.9672,-0.9668,-0.9669,-0.9669,-0.9667,-0.9666,-0.9669,-0.9672,-0.9672,-0.9672,-0.9672,-0.9672,-0.9672,-0.9817,-0.9807,-0.9801,-0.9787,-0.9779,-0.9768,-0.9762,-0.9754,-0.9745,-0.9731,-0.9722,-0.9714,-0.9703,-0.969,-0.9679,-0.9676,-0.9672,-0.9673,-0.9669,-0.9668,-0.9667,-0.9667,-0.9669,-0.9672,-0.9672,-0.9671,-0.9671,-0.9671]},{"header":{"parameterUnit":"m.s-1","parameterCategory":1,"la1":30.2991,"la2":30.254,"lo1":-89.0895,"lo2":-89.0444,"dy":0.0017,"dx":0.0017,"nx":28,"ny":28,"refTime":"2023-11-04T03:00:00:Z","depth":0,"parameterNumber":3,"parameterNumberName":"V-component_of_WINDS"},"data":[0,0,0,0,0,0,0,0,0,0,0,0,0,0,0,0,0,0,0,0,0,0,0,0,0,0,0,0,0,0,0,0,0,0,0,0,0,0,0,0,0,0,0,0,0,0,0,0,0,0,0,0,0,0,0,0,0,0,-1.1545,-1.1545,0,-1.1564,-1.1564,-1.1564,-1.1601,-1.1602,-1.1603,-1.1603,-1.1623,-1.1623,-1.1623,0,0,0,0,0,0,0,0,0,0,0,0,0,-1.1542,-1.1542,-1.1545,-1.1545,-1.1545,-1.1564,-1.1564,-1.1564,-1.1601,-1.1602,-1.1603,-1.1604,-1.1623,-1.1623,-1.1623,0,0,0,0,0,0,0,0,0,0,0,0,0,-1.1551,-1.1542,-1.1544,-1.1566,-1.1568,-1.1564,-1.1564,-1.1564,-1.1601,-1.1602,-1.1603,-1.1604,-1.1623,-1.1623,-1.1623,-1.16,0,0,-1.1622,-1.1622,0,0,0,0,0,0,0,0,-1.155,-1.1551,-1.1562,-1.1564,-1.1567,-1.1581,-1.1571,-1.1576,-1.1601,-1.1588,-1.1603,-1.1605,-1.1609,-1.161,-1.1611,-1.1601,-1.1602,-1.1622,-1.1622,-1.1622,-1.1622,0,0,0,0,0,0,0,-1.1549,-1.155,-1.1552,-1.1562,-1.1565,-1.1575,-1.1577,-1.1572,-1.1592,-1.159,-1.1592,-1.1594,-1.161,-1.1611,-1.1612,-1.1602,-1.1622,-1.1622,-1.1622,-1.1622,-1.1578,-1.1577,0,0,0,0,0,0,-1.1546,-1.1549,-1.1552,-1.1553,-1.1561,-1.1574,-1.1577,-1.1575,-1.1592,-1.1596,-1.1593,-1.1596,-1.1611,-1.1612,-1.1612,-1.1589,-1.1622,-1.1622,-1.1622,-1.1579,-1.1578,-1.1577,0,0,0,0,0,0,-1.1545,-1.1545,-1.1551,-1.1552,-1.1553,-1.1573,-1.1571,-1.1575,-1.1576,-1.1595,-1.1599,-1.159,-1.1612,-1.1613,-1.1604,-1.159,-1.1622,-1.1622,-1.1581,-1.1579,-1.1578,-1.1541,0,0,0,0,0,0,-1.1545,-1.1545,-1.1536,-1.1551,-1.1553,-1.1541,-1.157,-1.1575,-1.1576,-1.1579,-1.1593,-1.1597,-1.1613,-1.1604,-1.1603,-1.1591,-1.1622,-1.1582,-1.158,-1.1578,-1.1544,-1.1538,-1.1534,0,0,0,0,0,-1.1545,-1.1524,-1.1535,-1.1535,-1.1542,-1.154,-1.1541,-1.156,-1.1574,-1.1566,-1.1579,-1.1596,-1.1592,-1.1603,-1.1602,-1.1589,-1.1583,-1.158,-1.1578,-1.1546,-1.1539,-1.1534,0,0,0,0,0,0,-1.1506,-1.1526,-1.1539,-1.1522,-1.1529,-1.1546,-1.1536,-1.1552,-1.1555,-1.1558,-1.1581,-1.1584,-1.1573,-1.158,-1.1592,-1.157,-1.159,-1.1588,-1.1566,-1.156,-1.1555,-1.1554,-1.1621,0,0,0,0,0,-1.1495,-1.1491,-1.151,-1.1493,-1.1496,-1.1515,-1.1515,-1.1529,-1.1537,-1.1541,-1.1552,-1.156,-1.1561,-1.156,-1.1562,-1.1545,-1.155,-1.1536,-1.1531,-1.1527,-1.1525,-1.152,-1.1515,-1.1569,-1.1569,-1.1569,0,0,-1.1473,-1.1484,-1.148,-1.1486,-1.1493,-1.149,-1.1518,-1.1512,-1.1511,-1.154,-1.1533,-1.1542,-1.1552,-1.154,-1.1535,-1.1546,-1.1511,-1.1524,-1.1521,-1.1521,-1.1517,-1.1512,-1.1508,-1.1568,-1.1568,-1.1568,0,0,-1.1432,-1.1439,-1.1428,-1.1435,-1.1445,-1.1459,-1.1456,-1.1471,-1.1479,-1.1472,-1.1495,-1.1493,-1.1493,-1.1501,-1.1504,-1.1469,-1.1487,-1.1469,-1.1445,-1.1439,-1.1435,-1.1432,-1.1422,-1.1418,-1.1467,-1.1467,-1.1466,0,-1.1404,-1.14,-1.142,-1.1414,-1.1417,-1.1444,-1.1434,-1.144,-1.145,-1.1452,-1.1464,-1.1467,-1.1475,-1.1466,-1.1458,-1.1459,-1.1459,-1.1468,-1.1434,-1.1431,-1.1428,-1.1419,-1.1414,-1.1465,-1.1465,-1.1465,-1.1465,0,-1.1366,-1.1363,-1.1352,-1.1363,-1.1365,-1.1357,-1.1377,-1.1376,-1.1391,-1.1403,-1.1398,-1.1409,-1.1415,-1.1414,-1.1427,-1.1408,-1.1415,-1.143,-1.1451,-1.142,-1.1412,-1.1408,-1.1462,-1.1462,-1.1463,-1.1463,0,0,-1.13,-1.1324,-1.132,-1.1326,-1.1341,-1.134,-1.1334,-1.134,-1.1341,-1.1347,-1.1345,-1.1345,-1.136,-1.1364,-1.1379,-1.1374,-1.1349,-1.139,-1.1391,-1.1384,-1.1333,-1.1323,-1.1318,-1.1361,-1.136,-1.1359,-1.1333,0,-1.1264,-1.1256,-1.1275,-1.1262,-1.1261,-1.1288,-1.1283,-1.1293,-1.1305,-1.1306,-1.132,-1.1321,-1.1339,-1.1343,-1.1339,-1.1353,-1.134,-1.1355,-1.136,-1.136,-1.1359,-1.1313,-1.1302,-1.1276,-1.1329,-1.1329,-1.1328,0,-1.1221,-1.1227,-1.1214,-1.1233,-1.1233,-1.1229,-1.1238,-1.1238,-1.1251,-1.126,-1.1266,-1.1284,-1.1281,-1.1301,-1.1299,-1.1309,-1.1312,-1.132,-1.1319,-1.1322,-1.1343,-1.1317,-1.1268,-1.1265,-1.1323,-1.1323,-1.1324,0,-1.1178,-1.1182,-1.1177,-1.1181,-1.1201,-1.1198,-1.1207,-1.122,-1.1224,-1.1231,-1.1234,-1.1241,-1.1245,-1.1251,-1.1271,-1.1283,-1.1268,-1.1288,-1.1277,-1.1277,-1.1274,-1.1274,-1.1227,-1.1273,-1.1273,-1.1273,-1.1273,0,-1.1137,-1.1129,-1.1158,-1.1154,-1.1147,-1.117,-1.1162,-1.1173,-1.1185,-1.1186,-1.1208,-1.1208,-1.1234,-1.1237,-1.1252,-1.125,-1.1251,-1.126,-1.1265,-1.1259,-1.1258,-1.1263,-1.1266,-1.1272,-1.1272,-1.1272,-1.1272,0,-1.1087,-1.1106,-1.1102,-1.1123,-1.1128,-1.1122,-1.114,-1.1139,-1.1153,-1.1153,-1.1154,-1.1177,-1.1182,-1.1202,-1.1212,-1.1223,-1.1216,-1.1224,-1.1212,-1.1216,-1.1204,-1.1206,-1.116,-1.1156,-1.1202,-1.1202,-1.1201,0,-1.1061,-1.1056,-1.1076,-1.1079,-1.1086,-1.1089,-1.1093,-1.1116,-1.1119,-1.1134,-1.1132,-1.1139,-1.1146,-1.1154,-1.1171,-1.118,-1.1189,-1.1172,-1.119,-1.1186,-1.1192,-1.1192,-1.1193,-1.1169,-1.1168,-1.1167,-1.1167,0,-1.1013,-1.1023,-1.1028,-1.1037,-1.1042,-1.105,-1.1059,-1.106,-1.1085,-1.1089,-1.1095,-1.11,-1.1111,-1.1119,-1.1131,-1.1141,-1.1159,-1.1161,-1.116,-1.1155,-1.1149,-1.1155,-1.1204,-1.1162,-1.1163,-1.1163,-1.1163,-1.1164,-1.0976,-1.0974,-1.0989,-1.0995,-1.1004,-1.1013,-1.1014,-1.1029,-1.1034,-1.1045,-1.1058,-1.1063,-1.1079,-1.1096,-1.1105,-1.1111,-1.112,-1.1117,-1.1117,-1.1116,-1.1114,-1.1147,-1.1112,-1.1113,-1.1113,-1.1113,-1.1113,0,-1.0932,-1.0943,-1.0948,-1.0961,-1.0966,-1.0983,-1.0995,-1.0998,-1.1002,-1.1015,-1.1022,-1.103,-1.1039,-1.1057,-1.1068,-1.1069,-1.1078,-1.1071,-1.1072,-1.1075,-1.1104,-1.1105,-1.1064,-1.1064,-1.1064,-1.1064,-1.1064,-1.1064,-1.0909,-1.0907,-1.092,-1.0924,-1.0935,-1.0941,-1.0947,-1.0956,-1.0966,-1.0975,-1.0982,-1.0994,-1.101,-1.1022,-1.1031,-1.1037,-1.1041,-1.1032,-1.104,-1.1067,-1.1072,-1.1077,-1.1078,-1.1032,-1.1032,-1.1011,-1.1011,-1.101]}]]